Location: Lombard
(41.8800°N, 88.0080°W)
Time: 03:49:48
(UTC-06:00)

Vanguard 3 - Visible Passes

Search period start: 28 January 2023 00:00
Search period end: 07 February 2023 00:00
Orbit: 509 x 3253 km, 33.4° (Epoch: 27 January)

Date Brightness Start Highest point End Pass type
(mag) Time Alt. Az. Time Alt. Az. Time Alt. Az.
28 Jan 10.8 02:35:07 22° SSE 02:35:07 22° SSE 02:39:31 10° SSE visible
28 Jan 10.9 04:39:35 13° SW 04:39:35 13° SW 04:43:56 10° SSW visible
28 Jan 10.1 18:14:45 10° S 18:23:16 28° SE 18:31:28 17° E visible
28 Jan 9.6 20:23:29 10° SW 20:35:47 55° SSE 20:35:55 55° SSE visible
28 Jan 10.6 22:35:21 10° W 22:40:23 28° WSW 22:40:23 28° WSW visible
29 Jan 11.3 01:24:15 10° SE 01:24:15 10° SE 01:24:22 10° SE visible
29 Jan 10.8 03:28:44 19° SSW 03:28:44 19° SSW 03:33:23 10° S visible
29 Jan 9.7 19:09:12 10° SW 19:19:19 43° SSE 19:24:53 34° ESE visible
29 Jan 9.8 21:19:42 10° WSW 21:29:20 53° SW 21:29:20 53° SW visible
29 Jan 11.1 23:32:30 10° W 23:33:47 14° W 23:33:47 14° W visible
30 Jan 11.1 02:17:51 14° SSE 02:17:51 14° SSE 02:19:44 10° SSE visible
30 Jan 11.1 04:22:20 10° SW 04:22:20 10° SW 04:22:45 10° SSW visible
30 Jan 9.9 17:55:55 10° SSW 18:03:47 28° SE 18:13:48 13° E visible
30 Jan 9.5 20:04:45 10° WSW 20:16:06 56° SSE 20:18:15 53° SE visible
30 Jan 10.3 22:16:23 10° W 22:22:42 35° WSW 22:22:42 35° WSW visible
31 Jan11.601:06:58SE01:06:58SE00:27:09Wvisible
31 Jan 11.1 03:11:26 13° S 03:11:26 13° S 03:13:12 10° S visible
31 Jan 9.6 18:50:31 10° SW 18:59:48 44° SSE 19:07:08 28° ESE visible
31 Jan 9.6 21:00:56 10° WSW 21:11:35 60° SSW 21:11:35 60° SSW visible
31 Jan 10.9 23:13:25 10° W 23:16:02 19° W 23:16:02 19° W visible
01 Feb 9.8 17:37:11 10° SSW 17:44:25 29° SE 17:55:31 10° E visible
01 Feb 9.4 19:46:06 10° WSW 19:56:33 56° SSE 20:00:27 47° ESE visible
01 Feb 10.1 21:57:32 10° W 22:04:53 41° WSW 22:04:53 41° WSW visible
02 Feb 9.4 18:31:55 10° SW 18:40:25 44° SSE 18:49:17 22° E visible
02 Feb 9.5 20:42:15 10° WSW 20:53:44 62° S 20:53:44 62° S visible
02 Feb 10.7 22:54:27 10° W 22:58:10 23° W 22:58:10 23° W visible
03 Feb 9.6 17:18:32 10° SSW 17:25:09 29° SE 17:35:27 10° E visible
03 Feb 9.3 19:27:32 10° WSW 19:37:06 56° SSE 19:42:33 40° ESE visible
03 Feb 9.9 21:38:45 10° W 21:47:00 47° SW 21:47:00 47° SW visible
04 Feb 9.3 18:13:22 10° SW 18:21:09 45° SSE 18:31:22 17° E visible
04 Feb 9.4 20:23:37 10° WSW 20:34:16 60° S 20:35:49 58° SSE visible
04 Feb 10.5 22:35:35 10° W 22:40:15 27° WSW 22:40:15 27° WSW visible
05 Feb 9.2 19:09:00 10° WSW 19:17:45 55° S 19:24:37 32° ESE visible
05 Feb 9.7 21:20:03 10° W 21:29:04 51° SW 21:29:04 51° SW visible
05 Feb 11.1 23:32:56 10° W 23:33:30 12° W 23:33:30 12° W visible
06 Feb 9.1 17:54:54 10° SW 18:01:58 44° SSE 18:13:26 12° E visible
06 Feb 9.3 20:05:04 10° WSW 20:14:48 58° S 20:17:53 50° SE visible
06 Feb 10.3 22:16:48 10° W 22:22:19 31° WSW 22:22:19 31° WSW visible
